Regional Weather Roundup
Issued by NWS

Home | Current Version | Previous Version | Text Only | Print | Product List | Glossary Off
Versions: 1 2 3 4 5 6 7 8 9 10 11 12 13 14 15 16 17 18 19 20 21 22 23 24 25 26 27 28 29 30 31 32 33 34 35 36 37 38 39 40 41 42 43 44 45 46 47 48 49 50

000
ASUS45 KBOI 192210
RWRID
WEATHER ROUNDUP FOR IDAHO
NATIONAL WEATHER SERVICE BOISE ID
300 PM MST FRI DEC 19 2014

NOTE: "FAIR" INDICATES FEW OR NO CLOUDS BELOW 12000 FEET
WITH NO SIGNIFICANT WEATHER AND/OR OBSTRUCTIONS TO VISIBILITY

IDZ012-014-192300-
SOUTHWEST IDAHO


CITY           SKY/WX    TMP DP  RH WIND       PRES   REMARKS
BOISE          LGT RAIN  42  36  79 SE15G21   30.04S
CALDWELL       CLOUDY    43  34  70 E10       30.05S
MOUNTAIN HOME  LGT RAIN  39  37  91 E17       30.04S WCI  30
$$

IDZ016-017-192300-
SOUTHCENTRAL IDAHO


CITY           SKY/WX    TMP DP  RH WIND       PRES   REMARKS
BURLEY         LGT RAIN  41  33  73 NW7       30.06R
JEROME         LGT RAIN  38  36  92 SW10      30.07S FOG     WCI  31
TWIN FALLS     LGT RAIN  39  35  86 SW7       30.08R WCI  34
$$

IDZ019>023-192300-
SOUTHEAST IDAHO


CITY           SKY/WX    TMP DP  RH WIND       PRES   REMARKS
IDAHO FALLS    CLOUDY    39  32  76 S3        30.06F
POCATELLO      CLOUDY    40  30  67 S21G29    30.06S WCI  30
REXBURG        CLOUDY    36  31  82 S7        30.05F WCI  30
$$

IDZ006-010-011-018-031-032-192300-
CENTRAL IDAHO MOUNTAINS


CITY           SKY/WX    TMP DP  RH WIND       PRES   REMARKS
MCCALL         CLOUDY    33  31  92 SE8       29.96R WCI  26
HAILEY         LGT SNOW  34  32  93 SE7       30.05S VSB 3/4 WCI  28
STANLEY          N/A     32  27  81 SE9       29.97S WCI  24
SALMON         CLOUDY    36  27  69 N3        29.96S
CHALLIS        CLOUDY    33  28  81 CALM      29.97F
$$

IDZ002-004-006-007-026-192300-
NORTHERN IDAHO


CITY           SKY/WX    TMP DP  RH WIND       PRES   REMARKS
LEWISTON       FOG       43  43 100 CALM      29.98R VSB 3/4
LOWELL           N/A     40  38  93 CALM      30.00R
COEUR D`ALENE  CLOUDY    39  36  87 S10       29.90S WCI  32
MULLAN PASS    SNOW      30  27  88 CALM      29.84R VSB 1/4
$$



USA.gov is the U.S. government's official web portal to all federal, state and local government web resources and services.